Location: Buckhorn Peak
(37.6641°N, 120.1241°W)
Time: 01:12:33
(UTC+00:00)

BlueWalker 3 - Pass Details

Date: 21 October 2024
Orbit: 461 x 473 km, 53.2° (Epoch: 22 May)

Event Time Altitude Azimuth Distance (km) Brightness Sun altitude
Exits shadow 13:24:04 - 317° (NW) 1,656 4.1 -10.8°
Reaches altitude 10° 13:24:12 10° 317° (NW) 1,608 4.1 -10.8°
Maximum altitude 13:27:48 68° 41° (NE) 498 2.0 -10.1°
Drops below altitude 10° 13:31:23 10° 125° (SE) 1,600 5.6 -9.4°
Sets 13:33:31 0° 128° (SE) 2,473 6.6 -9.0°
